Wind_Speed
14 12 11 10 8 7 9 13 17 19 21 22 21 20 20 19 17 16 15 14 12 11 10 9 8 7 6 5 4 4 3 3 2 2 2 1 1 1 2 2 2 2 3
13 12 11 9 7 8 9 13 16 19 20 21 21 21 21 19 17 17 15 14 13 12 11 10 9 8 7 6 5 5 4 3 3 3 2 2 2 2 2 3 2 3 3
12 11 10 8 7 7 9 12 15 17 19 20 21 21 20 19 17 17 16 15 14 13 12 11 11 9 8 7 6 5 5 4 4 3 3 3 2 3 3 3 4 4 4
12 11 10 9 8 8 9 12 15 16 18 20 20 20 19 19 18 17 16 16 14 13 13 12 12 10 9 8 7 7 6 6 5 4 4 4 3 3 4 4 5 5 6
11 11 10 9 8 7 9 11 14 16 17 19 20 20 20 19 19 17 17 16 16 15 14 13 13 12 11 10 9 8 8 7 6 6 6 5 5 5 6 6 7 8 8
10 10 10 9 7 6 8 10 13 15 17 18 19 20 20 20 19 18 17 17 16 15 14 14 13 13 12 11 11 10 9 9 8 8 8 8 8 8 9 9 9 10 10
10 9 9 8 6 5 6 9 11 13 16 18 19 19 19 19 19 18 17 17 15 15 15 15 14 14 13 13 12 12 11 11 11 11 11 11 11 11 12 12 12 13 13
10 9 8 8 6 4 5 7 10 13 16 17 17 18 17 17 18 17 17 16 15 15 15 15 15 15 15 14 14 14 13 13 13 14 14 14 14 15 15 15 16 16 17
10 8 7 7 6 3 2 4 8 12 14 16 16 16 16 17 17 17 17 16 16 15 15 15 16 16 16 15 16 16 16 16 16 16 17 17 17 18 18 18 19 20 20
9 8 6 5 5 3 2 3 6 10 12 13 14 15 16 17 17 17 17 16 16 16 15 15 16 17 17 18 18 19 19 19 19 20 20 20 21 21 22 22 23 24 24
9 8 6 5 4 3 1 2 3 6 9 11 13 15 16 17 17 17 17 17 17 16 16 16 17 18 19 19 20 21 21 21 22 22 23 24 24 24 25 26 27 27 28
8 7 6 6 5 3 1 1 2 4 8 11 12 14 15 16 17 17 17 16 16 16 16 17 18 19 20 20 21 22 23 24 24 24 25 26 27 28 28 29 30 31 31
8 8 7 6 5 4 3 2 3 4 6 8 10 12 14 15 16 16 16 16 17 17 17 18 19 20 21 22 23 24 25 26 27 28 29 29 30 31 32 32 32 33 34
9 9 8 7 6 5 5 4 4 4 4 6 8 11 13 14 15 16 16 17 18 18 19 19 20 21 22 23 25 26 27 28 29 30 31 32 33 34 35 35 36 37 38
11 10 9 8 8 7 7 6 6 6 6 6 8 10 12 13 14 15 16 17 18 19 20 20 21 22 23 25 26 27 28 30 31 32 34 35 35 37 37 38 39 40 41
12 11 11 10 10 10 9 9 9 9 9 9 9 10 11 13 14 15 17 18 19 20 20 21 22 24 25 26 27 29 31 32 33 34 35 37 37 38 39 40 41 43 44
14 12 12 12 12 12 12 12 12 12 12 12 12 12 13 14 15 16 17 18 19 20 21 23 24 25 26 28 30 32 33 34 35 36 37 39 39 41 42 43 44 45 46
15 14 14 13 13 13 14 14 15 15 15 15 15 16 16 17 17 18 19 20 21 22 23 25 26 28 30 31 33 34 36 37 38 39 40 41 42 43 44 46 46 47 47
17 17 16 15 16 16 16 17 17 18 18 18 18 18 19 19 19 20 21 22 23 24 26 27 29 31 32 34 36 37 38 39 40 42 43 44 45 46 47 48 48 49 49
21 20 20 18 18 18 19 19 19 19 20 20 20 20 21 20 21 22 23 24 25 26 28 30 31 33 35 36 37 39 40 41 43 44 45 45 46 48 49 51 51 52 52
24 23 23 22 21 21 21 21 22 21 21 21 22 23 23 23 23 24 25 26 28 30 31 32 34 36 37 38 39 41 42 44 45 46 47 48 49 50 51 52 53 53 54
27 26 25 25 24 24 25 24 24 24 24 24 24 24 24 25 25 27 28 29 30 31 33 34 36 37 39 41 42 44 45 46 47 48 49 50 51 53 54 54 55 55 56
30 29 28 28 28 27 27 27 26 27 26 26 26 26 26 27 27 28 30 31 32 33 35 37 39 41 42 43 44 45 47 48 50 51 52 53 53 54 55 55 56 56 56
31 31 30 29 28 28 28 29 28 28 28 28 28 28 29 29 30 32 33 33 34 36 38 39 41 42 44 45 46 48 49 51 52 53 54 55 55 55 56 56 56 56 57
32 32 31 30 29 28 27 27 28 29 30 30 30 30 30 31 33 34 35 36 37 38 40 42 43 45 46 47 49 50 51 52 53 54 54 55 55 55 56 56 56 57 57
32 32 32 30 29 29 28 28 29 30 30 30 31 32 32 33 34 35 37 38 39 40 42 44 45 47 48 50 50 51 52 53 53 54 55 55 55 55 55 55 55 56 56
Wind_Direction
328 324 316 307 295 263 235 212 205 205 206 206 207 208 210 212 214 215 215 215 216 215 209 204 194 191 192 189 185 188 194 202 203 214 218 223 230 249 254 261 267 279 294
328 324 319 310 289 263 239 218 209 207 208 208 210 208 211 214 217 216 215 215 215 212 207 203 199 198 198 197 195 197 201 207 215 222 224 230 238 251 258 263 271 283 295
332 327 323 313 291 260 233 220 210 208 209 208 207 209 212 215 215 218 217 216 215 213 207 205 204 203 203 204 206 211 214 219 224 226 232 239 247 252 259 264 272 283 290
335 335 328 319 295 262 239 224 213 211 209 207 208 212 214 215 213 212 214 214 213 213 212 211 210 210 212 214 215 220 226 230 234 235 237 244 249 253 261 272 276 280 284
335 333 330 323 301 265 238 226 216 213 210 210 212 213 212 211 209 211 212 212 214 214 214 214 214 216 218 221 222 225 230 234 238 243 245 248 254 261 268 274 279 282 283
336 334 327 321 309 268 240 225 215 214 209 208 210 209 210 209 209 212 213 213 213 212 212 215 217 219 222 225 230 232 235 239 241 245 247 251 257 263 269 274 278 279 281
337 337 334 325 312 277 242 225 219 210 204 205 204 204 207 207 209 212 213 213 214 215 217 219 222 224 227 230 234 238 240 243 245 247 250 253 258 264 268 271 275 277 278
338 335 334 332 320 286 244 225 217 207 201 202 203 204 204 204 208 212 214 215 216 216 218 221 224 227 230 233 237 242 246 250 252 253 255 258 261 265 268 271 273 275 277
336 337 337 336 332 304 249 216 205 201 201 204 203 204 206 208 210 213 214 215 215 218 223 226 229 233 235 238 243 247 250 254 257 258 258 261 264 267 269 271 273 275 277
333 331 332 336 336 322 261 205 200 200 202 202 205 208 210 210 212 215 217 218 221 225 229 233 237 239 242 246 249 251 253 256 259 260 261 262 265 268 270 272 274 275 276
329 328 323 320 327 318 291 187 205 207 205 204 210 213 214 214 215 216 220 224 227 230 234 239 243 245 249 253 254 256 257 260 263 264 265 266 267 269 271 273 273 274 276
320 318 319 318 319 309 274 235 231 221 215 214 215 214 214 216 219 222 224 227 231 235 241 246 249 251 254 257 259 261 263 264 266 267 268 270 271 272 273 275 275 275 276
307 305 306 309 301 287 279 266 251 235 226 222 220 219 221 221 224 226 230 234 238 243 247 251 255 256 259 262 264 265 267 269 269 270 271 272 273 273 274 275 276 276 277
300 294 291 295 289 278 270 262 255 255 252 238 235 232 226 226 230 231 235 241 245 248 252 256 261 263 265 266 267 268 269 271 272 273 273 274 274 275 275 275 276 276 276
292 286 282 286 279 271 264 262 262 260 260 257 248 237 234 235 237 241 244 246 250 254 257 262 265 267 268 270 271 272 273 274 274 276 276 276 276 276 276 276 276 277 277
282 278 274 277 272 269 265 261 259 259 258 256 249 245 245 244 247 251 252 253 257 260 263 265 268 271 272 273 274 276 277 277 277 277 277 278 279 278 278 278 279 279 277
271 271 272 270 267 264 262 261 259 257 256 256 255 253 252 254 255 258 260 261 262 263 266 270 272 275 276 278 279 280 280 280 281 281 281 281 281 281 281 280 281 280 279
262 265 270 266 263 262 260 260 260 259 257 256 256 256 259 259 260 263 265 266 268 269 270 274 276 278 279 281 283 283 284 283 282 282 282 282 282 282 282 282 281 281 282
258 260 264 264 261 261 261 261 263 263 259 256 256 257 260 262 266 268 270 271 272 274 277 278 279 280 281 283 283 283 283 283 283 282 282 282 282 281 282 282 281 282 282
257 258 259 260 260 261 261 262 263 259 257 256 256 259 260 262 266 269 272 274 275 277 279 279 280 281 282 283 284 285 284 284 284 284 283 283 282 282 281 282 282 282 282
253 255 256 257 259 260 262 264 263 258 256 256 258 261 263 268 271 273 275 276 278 279 279 280 281 282 282 284 285 285 285 285 285 285 284 284 283 283 283 283 283 282 282
249 252 254 256 258 260 259 262 260 257 257 257 260 263 266 270 272 274 276 278 278 279 280 281 282 283 284 285 286 286 286 286 286 286 286 285 285 285 284 284 283 282 282
248 251 253 256 258 258 257 258 258 257 258 259 261 264 267 270 274 276 278 278 278 280 282 284 285 286 286 286 286 286 286 286 287 287 287 287 286 286 285 284 283 282 282
246 250 253 255 256 256 257 258 257 257 260 261 263 266 270 273 275 277 279 281 283 284 286 288 288 289 289 288 288 289 288 288 289 289 289 289 288 287 286 285 284 284 283
245 247 250 253 254 255 256 256 257 259 261 263 267 268 271 274 276 278 281 284 286 288 289 290 290 290 290 290 291 291 291 292 292 292 291 291 290 289 288 287 287 286 285
244 246 247 250 252 254 255 257 259 260 263 267 269 270 271 274 278 281 284 286 288 289 290 291 292 292 292 292 293 294 294 294 294 294 293 293 292 291 290 289 288 288 287
Height
5843 5840 5839 5837 5836 5835 5836 5837 5840 5842 5845 5849 5852 5856 5859 5862 5865 5868 5870 5873 5875 5876 5878 5879 5881 5882 5883 5884 5885 5886 5886 5887 5887 5887 5887 5887 5887 5887 5887 5887 5887 5887 5886
5842 5839 5837 5835 5834 5834 5834 5836 5838 5841 5844 5847 5850 5853 5857 5860 5863 5866 5868 5871 5873 5875 5876 5878 5880 5881 5883 5884 5884 5885 5886 5886 5887 5887 5887 5887 5888 5887 5887 5887 5887 5887 5886
5841 5838 5836 5834 5833 5833 5833 5834 5836 5839 5842 5845 5848 5851 5854 5857 5861 5864 5866 5869 5871 5873 5875 5877 5879 5880 5882 5883 5884 5885 5885 5886 5886 5886 5887 5887 5887 5887 5887 5887 5886 5886 5886
5839 5837 5834 5833 5832 5831 5831 5833 5834 5837 5839 5842 5846 5849 5852 5855 5858 5861 5864 5867 5869 5871 5873 5875 5877 5879 5881 5882 5883 5884 5885 5885 5885 5885 5885 5886 5886 5886 5886 5886 5886 5885 5885
5838 5836 5833 5832 5830 5829 5829 5830 5832 5835 5837 5840 5843 5846 5849 5853 5856 5859 5862 5865 5867 5869 5871 5874 5876 5877 5879 5880 5882 5882 5883 5884 5884 5884 5884 5885 5885 5885 5885 5885 5885 5884 5884
5837 5834 5832 5830 5828 5828 5828 5828 5830 5832 5834 5837 5840 5843 5847 5850 5854 5857 5860 5863 5865 5867 5869 5872 5874 5875 5877 5878 5880 5881 5881 5882 5882 5883 5883 5883 5883 5883 5883 5883 5883 5882 5882
5836 5833 5831 5830 5828 5827 5826 5827 5828 5829 5832 5835 5838 5841 5845 5848 5852 5855 5858 5860 5863 5865 5868 5870 5871 5873 5875 5876 5877 5878 5879 5879 5880 5880 5881 5881 5881 5881 5881 5881 5880 5880 5879
5835 5832 5830 5829 5827 5826 5825 5825 5826 5827 5830 5833 5836 5840 5843 5846 5850 5853 5855 5858 5860 5863 5865 5867 5869 5870 5872 5873 5874 5875 5876 5876 5877 5877 5877 5878 5878 5877 5877 5877 5877 5876 5876
5834 5832 5830 5828 5827 5826 5825 5825 5825 5827 5829 5832 5835 5838 5841 5845 5848 5850 5853 5855 5858 5860 5862 5864 5866 5867 5868 5869 5870 5871 5872 5873 5873 5874 5874 5874 5874 5873 5873 5873 5872 5872 5871
5833 5831 5829 5828 5827 5826 5825 5825 5826 5827 5829 5831 5834 5837 5840 5843 5846 5848 5851 5853 5856 5858 5860 5861 5863 5864 5865 5866 5866 5867 5868 5868 5869 5869 5869 5869 5869 5869 5868 5868 5867 5866 5866
5832 5831 5829 5828 5827 5827 5826 5826 5827 5828 5829 5831 5833 5836 5838 5841 5843 5846 5848 5851 5853 5855 5857 5858 5859 5860 5861 5861 5862 5862 5863 5863 5863 5863 5864 5864 5863 5863 5862 5862 5861 5860 5859
5831 5830 5829 5828 5827 5827 5827 5827 5827 5828 5829 5830 5832 5834 5836 5838 5841 5843 5845 5848 5850 5852 5853 5854 5855 5856 5856 5857 5857 5857 5858 5858 5858 5858 5858 5857 5857 5856 5856 5855 5854 5853 5852
5830 5829 5828 5827 5827 5826 5826 5827 5827 5828 5828 5829 5831 5832 5834 5836 5839 5841 5843 5845 5846 5848 5849 5850 5850 5851 5851 5852 5852 5852 5852 5851 5851 5851 5850 5850 5849 5848 5848 5847 5846 5845 5843
5828 5827 5827 5826 5826 5826 5826 5826 5827 5827 5828 5828 5829 5831 5832 5834 5836 5838 5839 5841 5842 5843 5844 5845 5845 5846 5846 5846 5846 5845 5845 5844 5844 5843 5842 5841 5841 5840 5839 5837 5836 5835 5834
5825 5825 5825 5825 5825 5825 5825 5826 5826 5827 5827 5827 5828 5829 5830 5832 5833 5834 5836 5837 5838 5839 5839 5840 5840 5840 5840 5839 5839 5838 5837 5837 5836 5835 5834 5833 5832 5830 5829 5828 5826 5825 5823
5823 5822 5822 5822 5822 5822 5823 5824 5824 5825 5825 5826 5826 5827 5828 5829 5830 5831 5831 5832 5833 5833 5834 5834 5834 5833 5833 5833 5832 5831 5829 5828 5827 5825 5824 5823 5821 5820 5818 5817 5815 5813 5812
5819 5819 5819 5819 5819 5819 5820 5821 5821 5822 5822 5823 5824 5824 5825 5826 5826 5827 5827 5827 5828 5828 5828 5828 5827 5827 5826 5825 5824 5822 5821 5819 5818 5816 5814 5812 5810 5808 5807 5804 5802 5800 5798
5815 5815 5815 5815 5815 5816 5817 5817 5818 5818 5819 5819 5820 5820 5821 5821 5822 5822 5822 5822 5822 5822 5822 5821 5820 5820 5819 5817 5816 5814 5812 5810 5808 5806 5804 5801 5799 5797 5795 5792 5790 5788 5785
5810 5810 5811 5811 5811 5812 5813 5813 5813 5813 5814 5815 5815 5816 5816 5816 5816 5817 5817 5816 5816 5815 5814 5813 5812 5811 5810 5808 5806 5804 5802 5800 5797 5795 5793 5790 5788 5785 5782 5780 5777 5774 5772
5804 5805 5806 5806 5807 5807 5808 5808 5808 5809 5809 5809 5810 5810 5810 5810 5811 5810 5810 5809 5809 5808 5807 5805 5804 5802 5800 5799 5796 5794 5791 5789 5786 5783 5781 5778 5775 5772 5769 5766 5763 5760 5757
5798 5799 5800 5801 5801 5802 5802 5802 5803 5803 5803 5804 5804 5804 5804 5804 5804 5804 5803 5802 5801 5800 5798 5797 5795 5793 5791 5788 5786 5783 5780 5777 5774 5771 5768 5765 5762 5758 5755 5752 5748 5745 5742
5790 5792 5793 5794 5795 5795 5796 5796 5796 5797 5797 5797 5798 5798 5798 5798 5797 5796 5796 5795 5793 5791 5789 5787 5785 5783 5780 5777 5774 5771 5768 5764 5761 5757 5754 5750 5747 5743 5739 5736 5732 5729 5726
5783 5784 5786 5787 5787 5788 5788 5789 5789 5789 5790 5791 5791 5791 5791 5790 5789 5788 5787 5786 5784 5782 5780 5777 5775 5772 5769 5765 5762 5759 5755 5751 5747 5743 5739 5735 5730 5727 5723 5719 5715 5712 5708
5775 5777 5778 5778 5779 5780 5780 5781 5782 5782 5783 5783 5784 5783 5783 5782 5781 5780 5778 5776 5774 5772 5769 5766 5763 5760 5757 5753 5749 5745 5741 5737 5732 5728 5723 5718 5714 5709 5705 5702 5698 5694 5691
5767 5769 5770 5771 5772 5772 5773 5773 5774 5775 5775 5775 5775 5775 5774 5773 5772 5770 5769 5766 5764 5761 5758 5755 5751 5748 5744 5740 5735 5730 5726 5721 5716 5711 5706 5702 5697 5692 5688 5683 5680 5676 5672
5758 5760 5762 5763 5764 5765 5765 5766 5767 5767 5767 5767 5767 5766 5765 5764 5762 5761 5759 5756 5753 5750 5747 5743 5739 5735 5730 5725 5721 5716 5710 5705 5700 5695 5690 5685 5680 5675 5670 5666 5661 5657 5654